METEOSAT-9 (MSG-2)

Last updated on Tue Oct 14 2025 00:02:21 GMT+0000 (Coordinated Universal Time)

1 28912U 05049B 25286.49656480 .00000116 00000+0 00000+0 0 9991 2 28912 8.7975 56.5286 0002864 192.4697 357.7858 1.00274192 4531
UTC large
Height (km)
Speed (km/s)
/
Latitude / Longitude
Inclination (degrees)
Orbital Period (minutes)
Azimuth
Elevation
Range (km)
Doppler Factor

Next 0 passes for location: London (51.5072 / 0.1276)

Sorry there are no passes over London.